Regional Weather Roundup
Issued by NWS

Home | Current Version | Previous Version | Text Only | Print | Product List | Glossary On
Versions: 1 2 3 4 5 6 7 8 9 10 11 12 13 14 15 16 17 18 19 20 21 22 23 24 25 26 27
000
ASUS43 KDMX 170607
RWRIA

WEATHER ROUNDUP FOR IOWA
NATIONAL WEATHER SERVICE DES MOINES IA
100 AM CDT THU APR 17 2014

NOTE: "FAIR" INDICATES FEW OR NO CLOUDS BELOW 12,000 FEET WITH NO
SIGNIFICANT WEATHER AND/OR OBSTRUCTIONS TO VISIBILITY.

* - THESE STATIONS ARE NOT NWS STATIONS...THUS NOT UNDER NWS
QUALITY CONTROL.  THEY ALSO DO NOT REPORT WEATHER SUCH
AS PRECIPITATION OR FOG.

IAZ001>003-012>014-020>022-031>034-043>046-170700-
   NORTHWEST IOWA

CITY           SKY/WX    TMP DP  RH WIND       PRES   REMARKS
CARROLL *      CLOUDY    34  28  80 NW21      30.06R WCI  22
CHEROKEE *     CLOUDY    31  28  90 N18G26    30.09R WCI  19
DENISON *      CLOUDY    32  28  86 NW14G23   30.09R WCI  22
LE MARS *      CLOUDY    32  28  86 N15G22    30.14R WCI  22
ORANGE CITY *  CLOUDY    30  25  80 N12G22    30.11R WCI  21
SHELDON *      CLOUDY    30  27  86 N21G26    30.09R WCI  17
SIOUX CITY     CLOUDY    34  27  75 NW17      30.16R WCI  23
6HR MIN TEMP:  34; 6HR MAX TEMP:  37; 6HR PCP: TRACE;

SPENCER        CLOUDY    30  26  85 N28G36    30.06R WCI  15
6HR MIN TEMP:  30; 6HR MAX TEMP:  40; 6HR PCP:  0.04;

STORM LAKE *   CLOUDY    30  28  93 NW22      30.06R WCI  17
$$

IAZ055>058-069>071-079>083-090>094-170700-
   SOUTHWEST IOWA

CITY           SKY/WX    TMP DP  RH WIND       PRES   REMARKS
ATLANTIC *     CLOUDY    34  28  80 NW17G29   30.08R WCI  23
AUDUBON *      MOCLDY    34  27  75 NW14G20   30.07R WCI  24
CLARINDA *     CLOUDY    37  30  75 NW17G24   30.10R WCI  28
COUNCIL BLFS * CLOUDY    34  30  86 NW14G21   30.11R WCI  24
CRESTON *      CLOUDY    36  32  87 NW21G26   30.06R WCI  24
HARLAN  *      CLOUDY    34  28  80 NW21G29   30.12R WCI  22
LAMONI         CLOUDY    40  33  76 W14       30.05R WCI  32
6HR MIN TEMP:  39; 6HR MAX TEMP:  61;

RED OAK *      CLOUDY    36  30  80 NW18      30.10R WCI  25
SHENANDOAH *   CLOUDY    37  30  75 NW15G25   30.12R WCI  28
$$

IAZ047>049-059>061-072>074-084-170700-
   CENTRAL IOWA

CITY           SKY/WX    TMP DP  RH WIND       PRES   REMARKS
AMES           CLOUDY    36  32  85 NW18G26   29.99R WCI  26
6HR MIN TEMP:  36; 6HR MAX TEMP:  60; 6HR PCP:  0.03;

ANKENY *       CLOUDY    37  34  87 NW16G24   30.01R WCI  28
CHARITON *     CLOUDY    41  36  81 W20       30.02R
DES MOINES     CLOUDY    39  33  79 NW15G24   30.02R WCI  31
6HR MIN TEMP:  39; 6HR MAX TEMP:  63; 6HR PCP: TRACE;

GRINNELL*      CLOUDY    45  39  80 W17       29.96R
KNOXVILLE *    CLOUDY    43  37  81 W18       30.00R
MARSHALLTOWN   CLOUDY    39  36  89 W24       29.95R WCI  28
6HR MIN TEMP:  39; 6HR MAX TEMP:  56; 6HR PCP: TRACE;

NEWTON *       CLOUDY    43  39  87 W23G30    29.99R
PELLA *        MOCLDY    44  38  80 W17G23    30.00R
PERRY *        CLOUDY    36  31  83 NW16      30.03R WCI  26
$$

IAZ004>006-015-016-023>025-035-036-170700-
   NORTH CENTRAL IOWA

CITY           SKY/WX    TMP DP  RH WIND       PRES   REMARKS
ALGONA *       CLOUDY    32  30  93 NW25G32   29.98R WCI  19
CLARION *      CLOUDY    32  30  93 NW24      29.97R WCI  19
ESTHERVILLE    CLOUDY    28  27  96 NW30G38   30.02R WCI  12
6HR MIN TEMP:  28; 6HR MAX TEMP:  39; 6HR PCP:  0.09;

FORT DODGE *   CLOUDY    34  27  75 NW13G20   30.01R WCI  25
MASON CITY     CLOUDY    33  32  96 NW20G30   29.91R WCI  21
6HR MIN TEMP:  33; 6HR MAX TEMP:  53; 6HR PCP: TRACE;

FOREST CITY *  CLOUDY    32  32 100 NW22G32   29.93R WCI  19
IOWA FALLS *   CLOUDY    35  32  90 NW28G35   29.95R WCI  22
$$

IAZ007>011-017>019-026>030-037>042-050>054-066-170700-
   NORTHEAST IOWA

CITY           SKY/WX    TMP DP  RH WIND       PRES   REMARKS
CEDAR RAPIDS   CLOUDY    48  26  42 S17G26    29.91R
6HR MIN TEMP:  48; 6HR MAX TEMP:  55;

CHARLES CITY * CLOUDY    41  37  87 W22G28    29.87R
CLINTON *      MOCLDY    46  28  49 S18G28    30.03F
DECORAH *      CLOUDY    48  28  46 S20G26    29.85S
DUBUQUE          N/A     43  28  55 S24       29.95S
6HR MIN TEMP:  43; 6HR MAX TEMP:  51;

MONTICELLO *   CLOUDY    46  30  53 SE22G31   29.93S
OELWEIN *      CLOUDY   N/A N/A N/A S17G23    29.89R
WATERLOO       CLOUDY    45  40  82 SW20G25   29.89R
6HR MIN TEMP:  45; 6HR MAX TEMP:  55;

$$

IAZ064-065-067-068-078-170700-
   EAST CENTRAL IOWA

CITY           SKY/WX    TMP DP  RH WIND       PRES   REMARKS
DAVENPORT        N/A     47  28  47 S24G33    30.00F
6HR MIN TEMP:  47; 6HR MAX TEMP:  53;

IOWA CITY        N/A     48  29  47 S16G24    29.95S
6HR MIN TEMP:  47; 6HR MAX TEMP:  56;

MT. PLEASANT *   N/A     47  28  47 S18       29.98S
MUSCATINE *      N/A     48  28  46 S18G28    29.98R
QUAD CITIES      N/A     46  28  49 S16G26    30.00F
6HR MIN TEMP:  46; 6HR MAX TEMP:  53;

$$

IAZ062-063-075>077-085>089-095>099-170700-
   SOUTHEAST IOWA

CITY           SKY/WX    TMP DP  RH WIND       PRES   REMARKS
BURLINGTON       N/A     48  27  44 S17G26    30.01S
6HR MIN TEMP:  47; 6HR MAX TEMP:  55;

FAIRFIELD *      N/A     50  28  43 S16G24    29.96R
FORT MADISON *   N/A     46  30  53 S13       30.02F
KEOKUK *         N/A     50  27  40 S13G20    30.01S
OSKALOOSA *      N/A     44  37  78 W18       29.99R
CENTERVILLE *    N/A     41  36  81 W15G21    30.04R
OTTUMWA          N/A     45  35  68 W18       29.99R
6HR MIN TEMP:  45; 6HR MAX TEMP:  58;

WASHINGTON *     N/A     48  28  46 S18G28    29.95R
$$

ABBREVIATIONS USED IN REMARKS
   TC - TEMPERATURES IN CELSIUS
  WCI - WIND CHILL INDEX
   HX - HEAT INDEX
  VSB - VISIBILITY
$$




USA.gov is the U.S. government's official web portal to all federal, state and local government web resources and services.